| time (UTC) | temp F | wind direction | speed MPH | gust MPH | rain 1hr in | rain 24hr in | rain mn in | humidity % | barometer mb |
| 20260506044704 | 49 | 327 | 9.0 | 13.0 | 0.00 | 0.00 | 0.00 | 70 | 1015.5 |
| 20260506043204 | 49 | 315 | 7.0 | 11.0 | 0.00 | 0.00 | 0.00 | 69 | 1015.4 |
| 20260506042704 | 49 | 327 | 7.0 | 11.0 | 0.00 | 0.00 | 0.00 | 69 | 1015.3 |
| 20260506042204 | 49 | 325 | 7.0 | 11.0 | 0.00 | 0.00 | 0.00 | 68 | 1015.3 |
| 20260506041704 | 49 | 310 | 5.0 | 9.0 | 0.00 | 0.00 | 0.00 | 67 | 1015.2 |
| 20260506041204 | 49 | 326 | 4.0 | 9.0 | 0.00 | 0.00 | 0.00 | 67 | 1015.1 |
| 20260506035704 | 50 | 325 | 4.0 | 8.0 | 0.00 | 0.00 | 0.00 | 65 | 1014.7 |
| 20260506035207 | 51 | 9 | 4.0 | 8.0 | 0.00 | 0.00 | 0.00 | 64 | 1014.6 |
| 20260506034204 | 52 | 20 | 4.0 | 9.0 | 0.00 | 0.00 | 0.00 | 66 | 1014.5 |
| 20260506033704 | 52 | 49 | 4.0 | 9.0 | 0.00 | 0.00 | 0.00 | 65 | 1014.5 |
| 20260506033204 | 52 | 41 | 4.0 | 9.0 | 0.00 | 0.00 | 0.00 | 65 | 1014.5 |
| 20260506032705 | 52 | 41 | 4.0 | 8.0 | 0.00 | 0.00 | 0.00 | 64 | 1014.5 |
| 20260506032204 | 52 | 48 | 4.0 | 8.0 | 0.00 | 0.00 | 0.00 | 63 | 1014.4 |
| 20260506031704 | 53 | 51 | 4.0 | 8.0 | 0.00 | 0.00 | 0.00 | 63 | 1014.4 |
| 20260506031204 | 53 | 57 | 3.0 | 10.0 | 0.00 | 0.00 | 0.00 | 63 | 1014.3 |
| 20260506030704 | 53 | 67 | 4.0 | 10.0 | 0.00 | 0.00 | 0.00 | 62 | 1014.3 |
| 20260506025704 | 53 | 73 | 5.0 | 11.0 | 0.00 | 0.00 | 0.00 | 61 | 1014.1 |
| 20260506025204 | 54 | 68 | 5.0 | 11.0 | 0.00 | 0.00 | 0.00 | 60 | 1014.0 |
| 20260506024705 | 54 | 63 | 5.0 | 11.0 | 0.00 | 0.00 | 0.00 | 60 | 1013.9 |
| 20260506023204 | 55 | 74 | 5.0 | 12.0 | 0.00 | 0.00 | 0.00 | 58 | 1013.8 |
| 20260506022705 | 55 | 63 | 5.0 | 16.0 | 0.00 | 0.00 | 0.00 | 57 | 1013.6 |
| 20260506022204 | 56 | 77 | 5.0 | 16.0 | 0.00 | 0.00 | 0.00 | 57 | 1013.6 |
| 20260506021704 | 56 | 60 | 6.0 | 14.0 | 0.00 | 0.00 | 0.00 | 56 | 1013.5 |
| 20260506021205 | 56 | 84 | 7.0 | 14.0 | 0.00 | 0.00 | 0.00 | 55 | 1013.4 |
| 20260506020705 | 57 | 83 | 6.0 | 14.0 | 0.00 | 0.00 | 0.00 | 54 | 1013.4 |
| 20260506020204 | 57 | 61 | 6.0 | 17.0 | 0.00 | 0.00 | 0.00 | 54 | 1013.2 |
| 20260506015706 | 57 | 67 | 7.0 | 17.0 | 0.00 | 0.00 | 0.00 | 53 | 1013.1 |
| 20260506015204 | 58 | 60 | 8.0 | 17.0 | 0.00 | 0.00 | 0.00 | 53 | 1013.1 |
| 20260506014704 | 58 | 74 | 7.0 | 14.0 | 0.00 | 0.00 | 0.00 | 51 | 1013.0 |
| 20260506014204 | 58 | 70 | 7.0 | 16.0 | 0.00 | 0.00 | 0.00 | 51 | 1012.9 |
| 20260506013704 | 59 | 78 | 7.0 | 16.0 | 0.00 | 0.00 | 0.00 | 51 | 1012.9 |
| 20260506013204 | 59 | 73 | 7.0 | 16.0 | 0.00 | 0.00 | 0.00 | 49 | 1012.8 |
| 20260506012704 | 60 | 73 | 8.0 | 14.0 | 0.00 | 0.00 | 0.00 | 48 | 1012.8 |
| 20260506012204 | 60 | 68 | 7.0 | 14.0 | 0.00 | 0.00 | 0.00 | 47 | 1012.8 |
| 20260506011704 | 61 | 73 | 6.0 | 12.0 | 0.00 | 0.00 | 0.00 | 46 | 1012.8 |
| 20260506011204 | 61 | 49 | 6.0 | 12.0 | 0.00 | 0.00 | 0.00 | 46 | 1012.6 |
| 20260506010705 | 62 | 78 | 6.0 | 14.0 | 0.00 | 0.00 | 0.00 | 46 | 1012.6 |
| 20260506010204 | 62 | 81 | 7.0 | 16.0 | 0.00 | 0.00 | 0.00 | 45 | 1012.6 |
| 20260506005204 | 62 | 94 | 6.0 | 16.0 | 0.00 | 0.00 | 0.00 | 45 | 1012.4 |
| 20260506004204 | 62 | 72 | 8.0 | 19.0 | 0.00 | 0.00 | 0.00 | 45 | 1012.4 |
| 20260506003704 | 62 | 59 | 7.0 | 19.0 | 0.00 | 0.00 | 0.00 | 45 | 1012.3 |
| 20260506003205 | 62 | 77 | 7.0 | 17.0 | 0.00 | 0.00 | 0.00 | 45 | 1012.2 |
| 20260506002704 | 61 | 92 | 8.0 | 17.0 | 0.00 | 0.00 | 0.00 | 46 | 1012.2 |
| 20260506001704 | 60 | 47 | 4.0 | 10.0 | 0.00 | 0.00 | 0.00 | 50 | 1012.4 |
| 20260506001204 | 58 | 86 | 4.0 | 10.0 | 0.00 | 0.00 | 0.00 | 51 | 1012.3 |
| 20260506000705 | 58 | 304 | 4.0 | 13.0 | 0.00 | 0.00 | 0.00 | 49 | 1012.3 |
| 20260505235704 | 59 | 287 | 5.0 | 15.0 | 0.00 | 0.00 | 0.00 | 49 | 1012.2 |
| 20260505235204 | 58 | 337 | 7.0 | 15.0 | 0.00 | 0.00 | 0.00 | 49 | 1012.1 |
| 20260505234704 | 58 | 311 | 8.0 | 16.0 | 0.00 | 0.00 | 0.00 | 49 | 1012.1 |
| 20260505234204 | 58 | 331 | 9.0 | 16.0 | 0.00 | 0.00 | 0.00 | 50 | 1012.1 |
| 20260505233705 | 58 | 331 | 9.0 | 18.0 | 0.00 | 0.00 | 0.00 | 51 | 1012.1 |
| 20260505233204 | 58 | 313 | 9.0 | 18.0 | 0.00 | 0.00 | 0.00 | 50 | 1012.1 |
| 20260505232704 | 58 | 349 | 7.0 | 18.0 | 0.00 | 0.00 | 0.00 | 51 | 1012.1 |
| 20260505231704 | 56 | 358 | 9.0 | 17.0 | 0.00 | 0.00 | 0.00 | 53 | 1012.0 |
| 20260505225705 | 57 | 312 | 10.0 | 22.0 | 0.00 | 0.00 | 0.00 | 53 | 1012.2 |
| 20260505225204 | 57 | 331 | 12.0 | 22.0 | 0.00 | 0.00 | 0.00 | 53 | 1012.2 |
| 20260505224704 | 57 | 317 | 14.0 | 22.0 | 0.00 | 0.00 | 0.00 | 54 | 1012.1 |
| 20260505224204 | 57 | 309 | 14.0 | 20.0 | 0.00 | 0.00 | 0.00 | 54 | 1012.1 |
| 20260505223704 | 57 | 319 | 12.0 | 19.0 | 0.00 | 0.00 | 0.00 | 54 | 1012.0 |
| 20260505223204 | 57 | 312 | 11.0 | 18.0 | 0.00 | 0.00 | 0.00 | 54 | 1012.1 |
| 20260505222204 | 58 | 330 | 9.0 | 15.0 | 0.00 | 0.00 | 0.00 | 52 | 1012.2 |
| 20260505221705 | 58 | 353 | 9.0 | 18.0 | 0.00 | 0.00 | 0.00 | 52 | 1012.2 |
| 20260505220704 | 58 | 311 | 14.0 | 19.0 | 0.00 | 0.00 | 0.00 | 53 | 1012.1 |
| 20260505215705 | 58 | 288 | 13.0 | 20.0 | 0.00 | 0.00 | 0.00 | 53 | 1012.3 |
| 20260505215204 | 57 | 290 | 13.0 | 20.0 | 0.00 | 0.00 | 0.00 | 54 | 1012.4 |
| 20260505214704 | 57 | 302 | 13.0 | 18.0 | 0.00 | 0.00 | 0.00 | 53 | 1012.4 |
| 20260505214204 | 58 | 311 | 13.0 | 19.0 | 0.00 | 0.00 | 0.00 | 53 | 1012.4 |
| 20260505213704 | 58 | 321 | 12.0 | 19.0 | 0.00 | 0.00 | 0.00 | 51 | 1012.4 |
| 20260505213204 | 58 | 300 | 12.0 | 18.0 | 0.00 | 0.00 | 0.00 | 52 | 1012.4 |
| 20260505212704 | 58 | 341 | 12.0 | 18.0 | 0.00 | 0.00 | 0.00 | 51 | 1012.4 |
| 20260505212204 | 58 | 311 | 12.0 | 19.0 | 0.00 | 0.00 | 0.00 | 51 | 1012.5 |
| 20260505211704 | 58 | 321 | 13.0 | 19.0 | 0.00 | 0.00 | 0.00 | 51 | 1012.5 |
| 20260505210704 | 58 | 295 | 10.0 | 23.0 | 0.00 | 0.00 | 0.00 | 52 | 1012.4 |
| 20260505205704 | 57 | 323 | 12.0 | 18.0 | 0.00 | 0.00 | 0.00 | 53 | 1012.6 |
| 20260505205204 | 57 | 302 | 13.0 | 19.0 | 0.00 | 0.00 | 0.00 | 54 | 1012.6 |
| 20260505204704 | 57 | 318 | 13.0 | 19.0 | 0.00 | 0.00 | 0.00 | 54 | 1012.6 |
| 20260505204204 | 57 | 307 | 13.0 | 19.0 | 0.00 | 0.00 | 0.00 | 54 | 1012.6 |
| 20260505203704 | 57 | 304 | 12.0 | 19.0 | 0.00 | 0.00 | 0.00 | 53 | 1012.6 |
| 20260505203204 | 57 | 307 | 12.0 | 22.0 | 0.00 | 0.00 | 0.00 | 54 | 1012.6 |
| 20260505202705 | 57 | 313 | 13.0 | 22.0 | 0.00 | 0.00 | 0.00 | 55 | 1012.8 |
| 20260505202204 | 58 | 286 | 14.0 | 20.0 | 0.00 | 0.00 | 0.00 | 54 | 1012.8 |
| 20260505201704 | 57 | 298 | 14.0 | 20.0 | 0.00 | 0.00 | 0.00 | 55 | 1012.6 |
| 20260505201204 | 57 | 317 | 13.0 | 18.0 | 0.00 | 0.00 | 0.00 | 55 | 1012.8 |
| 20260505200704 | 58 | 287 | 12.0 | 18.0 | 0.00 | 0.00 | 0.00 | 54 | 1012.8 |
| 20260505200204 | 58 | 316 | 12.0 | 18.0 | 0.00 | 0.00 | 0.00 | 52 | 1012.8 |
| 20260505195704 | 58 | 303 | 12.0 | 19.0 | 0.00 | 0.00 | 0.00 | 54 | 1012.8 |
| 20260505195204 | 56 | 318 | 13.0 | 19.0 | 0.00 | 0.00 | 0.00 | 56 | 1012.9 |
| 20260505194704 | 56 | 9 | 12.0 | 18.0 | 0.00 | 0.00 | 0.00 | 57 | 1013.1 |
| 20260505194204 | 57 | 296 | 12.0 | 17.0 | 0.00 | 0.00 | 0.00 | 57 | 1013.0 |
| 20260505193204 | 56 | 294 | 11.0 | 19.0 | 0.00 | 0.00 | 0.00 | 56 | 1013.2 |
| 20260505192704 | 57 | 290 | 11.0 | 19.0 | 0.00 | 0.00 | 0.00 | 57 | 1013.1 |
| 20260505192205 | 57 | 321 | 9.0 | 19.0 | 0.00 | 0.00 | 0.00 | 57 | 1013.1 |
| 20260505191704 | 57 | 300 | 8.0 | 14.0 | 0.00 | 0.00 | 0.00 | 55 | 1013.1 |
| 20260505191203 | 57 | 327 | 8.0 | 13.0 | 0.00 | 0.00 | 0.00 | 55 | 1013.1 |
| 20260505190704 | 57 | 296 | 6.0 | 13.0 | 0.00 | 0.00 | 0.00 | 54 | 1013.1 |
| 20260505190204 | 58 | 302 | 6.0 | 13.0 | 0.00 | 0.00 | 0.00 | 54 | 1013.1 |
| 20260505185704 | 58 | 315 | 6.0 | 13.0 | 0.00 | 0.00 | 0.00 | 52 | 1013.1 |
| 20260505185205 | 58 | 298 | 5.0 | 13.0 | 0.00 | 0.00 | 0.00 | 45 | 1013.2 |
| 20260505184704 | 58 | 64 | 5.0 | 13.0 | 0.00 | 0.00 | 0.00 | 46 | 1013.1 |
| 20260505184204 | 58 | 75 | 5.0 | 12.0 | 0.00 | 0.00 | 0.00 | 46 | 1013.1 |
| 20260505183704 | 58 | 88 | 4.0 | 12.0 | 0.00 | 0.00 | 0.00 | 46 | 1013.1 |
| 20260505183204 | 58 | 12 | 5.0 | 9.0 | 0.00 | 0.00 | 0.00 | 45 | 1013.1 |
| 20260505182704 | 59 | 13 | 4.0 | 11.0 | 0.00 | 0.00 | 0.00 | 45 | 1013.1 |
| 20260505182204 | 60 | 57 | 4.0 | 12.0 | 0.00 | 0.00 | 0.00 | 44 | 1013.0 |
| 20260505181205 | 58 | 80 | 5.0 | 14.0 | 0.00 | 0.00 | 0.00 | 45 | 1013.0 |
| 20260505180705 | 58 | 24 | 4.0 | 14.0 | 0.00 | 0.00 | 0.00 | 47 | 1013.0 |
| 20260505180204 | 57 | 52 | 7.0 | 15.0 | 0.00 | 0.00 | 0.00 | 48 | 1013.1 |
| 20260505175704 | 57 | 75 | 8.0 | 15.0 | 0.00 | 0.00 | 0.00 | 49 | 1013.1 |
| 20260505175204 | 57 | 84 | 6.0 | 15.0 | 0.00 | 0.00 | 0.00 | 48 | 1013.0 |
| 20260505174704 | 57 | 48 | 5.0 | 12.0 | 0.00 | 0.00 | 0.00 | 46 | 1012.9 |
| 20260505174204 | 57 | 32 | 5.0 | 14.0 | 0.00 | 0.00 | 0.00 | 46 | 1012.9 |
| 20260505173704 | 57 | 77 | 6.0 | 14.0 | 0.00 | 0.00 | 0.00 | 48 | 1012.9 |
| 20260505173204 | 56 | 87 | 6.0 | 12.0 | 0.00 | 0.00 | 0.00 | 50 | 1012.9 |
| 20260505172704 | 57 | 34 | 6.0 | 12.0 | 0.00 | 0.00 | 0.00 | 49 | 1012.8 |
| 20260505171704 | 57 | 78 | 6.0 | 15.0 | 0.00 | 0.00 | 0.00 | 50 | 1012.6 |
| 20260505171205 | 56 | 61 | 7.0 | 15.0 | 0.00 | 0.00 | 0.00 | 51 | 1012.6 |
| 20260505170704 | 56 | 78 | 8.0 | 15.0 | 0.00 | 0.00 | 0.00 | 52 | 1012.8 |
| 20260505170204 | 56 | 88 | 6.0 | 13.0 | 0.00 | 0.00 | 0.00 | 52 | 1012.6 |
| 20260505165704 | 55 | 88 | 6.0 | 12.0 | 0.00 | 0.00 | 0.00 | 53 | 1012.6 |
| 20260505165204 | 55 | 65 | 6.0 | 15.0 | 0.00 | 0.00 | 0.00 | 53 | 1012.6 |
| 20260505164704 | 55 | 83 | 7.0 | 15.0 | 0.00 | 0.00 | 0.00 | 53 | 1012.6 |
| 20260505164204 | 55 | 78 | 7.0 | 17.0 | 0.00 | 0.00 | 0.00 | 53 | 1012.6 |
| 20260505163704 | 55 | 72 | 7.0 | 17.0 | 0.00 | 0.00 | 0.00 | 54 | 1012.5 |
| 20260505163204 | 55 | 55 | 6.0 | 13.0 | 0.00 | 0.00 | 0.00 | 55 | 1012.6 |
| 20260505162204 | 55 | 72 | 6.0 | 14.0 | 0.00 | 0.00 | 0.00 | 53 | 1012.5 |
| 20260505161704 | 55 | 69 | 6.0 | 13.0 | 0.00 | 0.00 | 0.00 | 52 | 1012.4 |
| 20260505161204 | 55 | 61 | 6.0 | 13.0 | 0.00 | 0.00 | 0.00 | 52 | 1012.4 |
| 20260505160703 | 55 | 73 | 5.0 | 12.0 | 0.00 | 0.00 | 0.00 | 52 | 1012.3 |
| 20260505160204 | 55 | 65 | 4.0 | 8.0 | 0.00 | 0.00 | 0.00 | 53 | 1012.3 |
| 20260505153204 | 53 | 49 | 5.0 | 9.0 | 0.00 | 0.00 | 0.00 | 56 | 1012.3 |
| 20260505152704 | 53 | 66 | 4.0 | 9.0 | 0.00 | 0.00 | 0.00 | 57 | 1012.2 |
| 20260505152204 | 53 | 70 | 4.0 | 9.0 | 0.00 | 0.00 | 0.00 | 57 | 1012.2 |
| 20260505151704 | 52 | 45 | 4.0 | 7.0 | 0.00 | 0.00 | 0.00 | 58 | 1012.2 |
| 20260505151204 | 51 | 49 | 3.0 | 7.0 | 0.00 | 0.00 | 0.00 | 60 | 1012.2 |
| 20260505150704 | 51 | 94 | 3.0 | 8.0 | 0.00 | 0.00 | 0.00 | 64 | 1012.2 |
| 20260505150204 | 50 | 26 | 3.0 | 8.0 | 0.00 | 0.00 | 0.00 | 66 | 1012.3 |
| 20260505130204 | 46 | 315 | 5.0 | 8.0 | 0.00 | 0.00 | 0.00 | 81 | 1011.6 |
| 20260505124704 | 47 | 321 | 4.0 | 5.0 | 0.00 | 0.00 | 0.00 | 81 | 1011.8 |
| 20260505124205 | 47 | 324 | 3.0 | 5.0 | 0.00 | 0.00 | 0.00 | 81 | 1011.8 |
| 20260505123704 | 47 | 325 | 2.0 | 5.0 | 0.00 | 0.00 | 0.00 | 81 | 1011.8 |
| 20260505123204 | 47 | 325 | 3.0 | 5.0 | 0.00 | 0.00 | 0.00 | 81 | 1011.8 |
| 20260505122705 | 46 | 325 | 2.0 | 5.0 | 0.00 | 0.00 | 0.00 | 81 | 1011.8 |
| 20260505122204 | 46 | 325 | 2.0 | 4.0 | 0.00 | 0.00 | 0.00 | 81 | 1011.8 |
| 20260505121704 | 46 | 325 | 2.0 | 4.0 | 0.00 | 0.00 | 0.00 | 81 | 1011.8 |
| 20260505121204 | 46 | 325 | 2.0 | 4.0 | 0.00 | 0.00 | 0.00 | 81 | 1011.8 |
| 20260505120704 | 46 | 325 | 2.0 | 3.0 | 0.00 | 0.00 | 0.00 | 81 | 1011.8 |
| 20260505120205 | 46 | 325 | 1.0 | 3.0 | 0.00 | 0.00 | 0.00 | 81 | 1011.8 |
| 20260505115704 | 46 | 325 | 2.0 | 3.0 | 0.00 | 0.00 | 0.00 | 82 | 1011.9 |
| 20260505115204 | 45 | 325 | 1.0 | 2.0 | 0.00 | 0.00 | 0.00 | 82 | 1011.9 |
| 20260505114705 | 45 | 325 | 0.0 | 3.0 | 0.00 | 0.00 | 0.00 | 82 | 1012.0 |
| 20260505114204 | 45 | 325 | 1.0 | 4.0 | 0.00 | 0.00 | 0.00 | 82 | 1012.1 |
| 20260505113704 | 45 | 325 | 1.0 | 4.0 | 0.00 | 0.00 | 0.00 | 82 | 1012.1 |
| 20260505113204 | 45 | 325 | 1.0 | 4.0 | 0.00 | 0.00 | 0.00 | 82 | 1012.1 |
| 20260505112705 | 45 | 325 | 1.0 | 5.0 | 0.00 | 0.00 | 0.00 | 82 | 1012.0 |
| 20260505111704 | 45 | 325 | 2.0 | 5.0 | 0.00 | 0.00 | 0.00 | 83 | 1012.0 |
| 20260505111204 | 45 | 325 | 2.0 | 5.0 | 0.00 | 0.00 | 0.00 | 82 | 1012.0 |
| 20260505110706 | 45 | 325 | 2.0 | 5.0 | 0.00 | 0.00 | 0.00 | 82 | 1012.0 |
| 20260505110204 | 45 | 325 | 3.0 | 9.0 | 0.00 | 0.00 | 0.00 | 82 | 1011.9 |
| 20260505101705 | 45 | 317 | 8.0 | 15.0 | 0.00 | 0.00 | 0.00 | 82 | 1011.9 |
| 20260505101204 | 45 | 324 | 8.0 | 11.0 | 0.00 | 0.00 | 0.00 | 82 | 1011.9 |
| 20260505100204 | 45 | 318 | 8.0 | 14.0 | 0.00 | 0.00 | 0.00 | 82 | 1012.0 |
| 20260505095704 | 45 | 334 | 8.0 | 14.0 | 0.00 | 0.00 | 0.00 | 83 | 1012.0 |
| 20260505095204 | 45 | 317 | 8.0 | 11.0 | 0.00 | 0.00 | 0.00 | 83 | 1012.0 |
| 20260505094705 | 45 | 321 | 7.0 | 11.0 | 0.00 | 0.00 | 0.00 | 82 | 1012.1 |
| 20260505094204 | 45 | 327 | 6.0 | 9.0 | 0.00 | 0.00 | 0.00 | 82 | 1012.1 |
| 20260505093204 | 44 | 328 | 5.0 | 8.0 | 0.00 | 0.00 | 0.00 | 82 | 1012.2 |
| 20260505092705 | 44 | 327 | 5.0 | 8.0 | 0.00 | 0.00 | 0.00 | 81 | 1012.2 |
| 20260505092204 | 44 | 327 | 4.0 | 8.0 | 0.00 | 0.00 | 0.00 | 81 | 1012.3 |
| 20260505091704 | 45 | 326 | 4.0 | 8.0 | 0.00 | 0.00 | 0.00 | 81 | 1012.3 |
| 20260505091205 | 45 | 325 | 4.0 | 9.0 | 0.00 | 0.00 | 0.00 | 81 | 1012.3 |
| 20260505090705 | 45 | 325 | 5.0 | 9.0 | 0.00 | 0.00 | 0.00 | 81 | 1012.4 |
| 20260505090204 | 45 | 320 | 4.0 | 8.0 | 0.00 | 0.00 | 0.00 | 81 | 1012.4 |
| 20260505085704 | 45 | 327 | 4.0 | 9.0 | 0.00 | 0.00 | 0.00 | 81 | 1012.5 |
| 20260505085204 | 45 | 327 | 5.0 | 9.0 | 0.00 | 0.00 | 0.00 | 81 | 1012.5 |
| 20260505084705 | 45 | 323 | 5.0 | 11.0 | 0.00 | 0.00 | 0.00 | 81 | 1012.5 |
| 20260505084204 | 45 | 331 | 5.0 | 11.0 | 0.00 | 0.00 | 0.00 | 81 | 1012.6 |
| 20260505083205 | 45 | 321 | 5.0 | 8.0 | 0.00 | 0.00 | 0.00 | 81 | 1012.8 |
| 20260505082706 | 45 | 317 | 4.0 | 8.0 | 0.00 | 0.00 | 0.00 | 81 | 1012.8 |
| 20260505082204 | 45 | 330 | 4.0 | 10.0 | 0.00 | 0.00 | 0.00 | 81 | 1012.9 |
| 20260505081704 | 45 | 330 | 6.0 | 10.0 | 0.00 | 0.00 | 0.00 | 81 | 1012.9 |
| 20260505081204 | 45 | 330 | 6.0 | 10.0 | 0.00 | 0.00 | 0.00 | 82 | 1013.0 |
| 20260505080704 | 45 | 323 | 5.0 | 11.0 | 0.00 | 0.00 | 0.00 | 81 | 1013.0 |
| 20260505075704 | 46 | 328 | 7.0 | 12.0 | 0.00 | 0.00 | 0.00 | 81 | 1013.0 |
| 20260505075204 | 46 | 321 | 8.0 | 12.0 | 0.00 | 0.00 | 0.00 | 81 | 1013.0 |
| 20260505074704 | 46 | 324 | 8.0 | 12.0 | 0.00 | 0.00 | 0.00 | 81 | 1013.1 |
| 20260505074204 | 46 | 317 | 8.0 | 12.0 | 0.00 | 0.00 | 0.00 | 80 | 1013.0 |
| 20260505073204 | 46 | 336 | 7.0 | 11.0 | 0.00 | 0.00 | 0.00 | 80 | 1013.0 |
| 20260505072704 | 46 | 317 | 7.0 | 10.0 | 0.00 | 0.00 | 0.00 | 80 | 1013.0 |
| 20260505072204 | 46 | 325 | 6.0 | 10.0 | 0.00 | 0.00 | 0.00 | 80 | 1013.0 |
| 20260505071704 | 46 | 321 | 6.0 | 11.0 | 0.00 | 0.00 | 0.00 | 80 | 1013.0 |
| 20260505071203 | 46 | 313 | 7.0 | 11.0 | 0.00 | 0.00 | 0.00 | 80 | 1013.0 |
| 20260505070704 | 46 | 309 | 7.0 | 13.0 | 0.00 | 0.00 | 0.00 | 80 | 1013.0 |
| 20260505070204 | 46 | 310 | 7.0 | 14.0 | 0.00 | 0.00 | 0.00 | 79 | 1013.1 |
| 20260505065704 | 46 | 310 | 9.0 | 16.0 | 0.00 | 0.00 | 0.00 | 79 | 1013.1 |
| 20260505065204 | 46 | 286 | 10.0 | 16.0 | 0.00 | 0.00 | 0.00 | 80 | 1013.0 |
| 20260505064704 | 46 | 315 | 10.0 | 16.0 | 0.00 | 0.00 | 0.00 | 79 | 1013.1 |
| 20260505064204 | 46 | 319 | 9.0 | 16.0 | 0.00 | 0.00 | 0.00 | 79 | 1013.1 |
| 20260505063704 | 46 | 328 | 10.0 | 16.0 | 0.00 | 0.00 | 0.00 | 79 | 1013.1 |
| 20260505063205 | 46 | 327 | 10.0 | 15.0 | 0.00 | 0.00 | 0.00 | 79 | 1013.1 |
| 20260505062704 | 46 | 316 | 10.0 | 16.0 | 0.00 | 0.00 | 0.00 | 79 | 1013.0 |
| 20260505062204 | 46 | 313 | 10.0 | 16.0 | 0.00 | 0.00 | 0.00 | 78 | 1013.0 |
| 20260505061204 | 47 | 304 | 8.0 | 11.0 | 0.00 | 0.00 | 0.00 | 76 | 1013.0 |
| 20260505055705 | 47 | 321 | 7.0 | 11.0 | 0.00 | 0.00 | 0.00 | 76 | 1012.9 |
| 20260505055204 | 47 | 307 | 5.0 | 9.0 | 0.00 | 0.00 | 0.00 | 76 | 1013.0 |
| 20260505054704 | 47 | 311 | 4.0 | 9.0 | 0.00 | 0.00 | 0.00 | 75 | 1013.1 |
| 20260505054204 | 47 | 313 | 4.0 | 12.0 | 0.00 | 0.00 | 0.00 | 75 | 1013.0 |
| 20260505053704 | 47 | 323 | 6.0 | 12.0 | 0.00 | 0.00 | 0.00 | 76 | 1013.0 |
| 20260505053204 | 47 | 323 | 8.0 | 12.0 | 0.00 | 0.00 | 0.00 | 76 | 1013.0 |
| 20260505052204 | 47 | 311 | 8.0 | 12.0 | 0.00 | 0.00 | 0.00 | 76 | 1012.9 |
| 20260505051705 | 47 | 304 | 6.0 | 10.0 | 0.00 | 0.00 | 0.00 | 75 | 1012.9 |
| 20260505051204 | 47 | 303 | 5.0 | 11.0 | 0.00 | 0.00 | 0.00 | 75 | 1013.0 |
| 20260505050703 | 47 | 295 | 6.0 | 14.0 | 0.00 | 0.00 | 0.00 | 74 | 1013.1 |
| 20260505050205 | 47 | 312 | 8.0 | 14.0 | 0.00 | 0.00 | 0.00 | 74 | 1013.1 |